Find Starlink 32222

NORAD ID: 60435 Int'l Des: 2024-144 Owner: SPXS Country: US Constellation: starlink operational
LEOCIRCULAR

当前视图

正在加载3D地球...

About Starlink 32222

Starlink 32222 (NORAD 60435) is a starlink constellation satellite (v2 mini) launched Aug 12, 2024 by SPXS of US. It operates in LEO, CIRCULAR orbit with a mass of 730.00 kg.

关于 Starlink 32222

正在加载描述...

即将过境

Passes for default location (London). Set your location on the main map for personalized predictions.

高度历史

Loading altitude history...

两行轨道根数

1 60435U 24144L 26168.11256681 -.00000134 00000-0 71568-5 0 9997
2 60435 53.1599 113.7354 0001221 97.6218 262.4924 15.34384746104554
Epoch: Jun 17, 2026 • Age: 22 hours

当前状态

高度 465.9 km
速度 7.64 km/s
星下点 40.54°N, 129.6°W
发射日期 Aug 12, 2024
运行时间 1.8 years
类型 internet

技术详情

分类 Payload
质量 730.00 kg
干质量 700.00 kg
总质量 730.00 kg
长度 0.30 m
直径 4.10 m
跨度 29.00 m
形状 Box + pan
制造商 SPXS
平台类型 Starlink V2M
阶段状态 In Orbit
所有者/国家 SPXS/US

Most Searched